Weather History for Chatham, MA

Change the Weather History Date:

Friday, February 8, 2013

  Actual Average Record
Temperature  
Mean Temperature 32 °F -  
Max Temperature 35 °F 37 °F 54 °F (2009)
Min Temperature 30 °F 24 °F 9 °F (1985)
Degree Days  
Heating Degree Days 32    
Moisture  
Dew Point 30 °F    
Average Humidity 85    
Maximum Humidity 100    
Minimum Humidity 67    
Precipitation  
Precipitation 0.93 in - - ()
Sea Level Pressure  
Sea Level Pressure 29.88 in    
Wind  
Wind Speed 20 mph (ENE)    
Max Wind Speed 38 mph    
Max Gust Speed 67 mph    
Visibility 4 miles    
Events Rain , Snow    
Averages and records for this station are not official NWS values.
T = Trace of Precipitation, MM = Missing Value Source: NWS Daily Summary

Daily Weather History Graph

Daily Weather History Graph

Search for Another Location

Airport:

Trip Planner

Search our weather history database for the weather conditions in past years. The results will help you decide how hot, cold, wet, or windy it might be!

Date:

Astronomy

Feb. 08, 2013 Rise Set
Actual Time 6:44 AM EST 5:04 PM EST
Civil Twilight 6:15 AM EST 5:33 PM EST
Nautical Twilight 5:42 AM EST 6:06 PM EST
Astronomical Twilight 5:09 AM EST 6:39 PM EST
Moon 5:10 AM EST (2/8) 3:34 PM EST (2/8)
Length of Visible Light 11h 18m
Length of Day
10h 20m
Waning Crescent, 3% of the Moon is Illuminated
Feb 8
Waning Crescent
Feb 10
New
Feb 17
First Quarter
Feb 25
Full
Mar 4
Last Quarter

Hourly Weather History & Observations

Time (EST) Temp. Windchill Dew Point Humidity Pressure Visibility Wind Dir Wind Speed Gust Speed Precip Events Conditions
12:52 AM 30.9 °F 23.5 °F 21.0 °F 67% 30.48 in 10.0 mi East 8.1 mph - N/A   Overcast
1:52 AM 30.9 °F 22.8 °F 21.9 °F 69% 30.46 in 10.0 mi East 9.2 mph 16.1 mph N/A   Overcast
2:52 AM 30.9 °F 21.7 °F 23.0 °F 72% 30.42 in 10.0 mi East 11.5 mph 18.4 mph N/A   Overcast
3:52 AM 32.0 °F 23.6 °F 23.0 °F 69% 30.40 in 10.0 mi East 10.4 mph - N/A   Overcast
4:52 AM 32.0 °F 22.1 °F 23.0 °F 69% 30.40 in 10.0 mi East 13.8 mph 19.6 mph N/A   Overcast
5:52 AM 32.0 °F 20.8 °F 23.0 °F 69% 30.36 in 10.0 mi East 17.3 mph 24.2 mph N/A   Overcast
6:52 AM 32.0 °F 22.5 °F 24.1 °F 73% 30.36 in 10.0 mi East 12.7 mph - N/A   Overcast
7:52 AM 33.1 °F 23.4 °F 25.0 °F 72% 30.32 in 10.0 mi East 13.8 mph 24.2 mph N/A   Overcast
8:52 AM 34.0 °F 23.8 °F 26.1 °F 73% 30.31 in 10.0 mi East 16.1 mph 28.8 mph N/A   Overcast
9:52 AM 35.1 °F 24.8 °F 28.0 °F 76% 30.27 in 10.0 mi East 17.3 mph 31.1 mph N/A   Overcast
10:52 AM 35.1 °F 24.8 °F 30.0 °F 82% 30.22 in 3.0 mi East 17.3 mph 26.5 mph 0.00 in Snow Light Snow
11:00 AM 35.6 °F 24.8 °F 30.2 °F 81% 30.21 in 2.5 mi East 19.6 mph 31.1 mph 0.00 in Snow Light Snow
11:13 AM 35.6 °F 25.5 °F 30.2 °F 81% 30.19 in 3.0 mi East 17.3 mph 28.8 mph 0.00 in Snow Light Snow
11:52 AM 35.1 °F 24.1 °F 30.9 °F 85% 30.16 in 2.5 mi East 19.6 mph 33.4 mph 0.00 in Snow Light Snow
12:08 PM 33.8 °F 21.9 °F 30.2 °F 87% 30.14 in 1.8 mi East 21.9 mph 29.9 mph 0.01 in Snow Light Snow
12:52 PM 34.0 °F 22.4 °F 32.0 °F 92% 30.10 in 1.5 mi East 20.7 mph 32.2 mph 0.02 in Snow Light Snow
1:11 PM 35.6 °F 24.0 °F 32.0 °F 87% 30.08 in 2.5 mi East 23.0 mph 32.2 mph 0.01 in Snow Light Snow
1:52 PM 35.1 °F 23.8 °F 32.0 °F 89% 30.05 in 1.8 mi East 20.7 mph 35.7 mph 0.03 in Snow Light Snow
1:59 PM 35.6 °F 24.0 °F 32.0 °F 87% 30.03 in 2.0 mi East 23.0 mph 35.7 mph 0.00 in Snow Light Snow
2:07 PM 35.6 °F 23.7 °F 32.0 °F 87% 30.02 in 1.5 mi East 24.2 mph 34.5 mph 0.01 in Snow Light Snow
2:20 PM 35.6 °F 24.2 °F 32.0 °F 87% 30.01 in 2.5 mi East 21.9 mph 35.7 mph 0.02 in Snow Light Snow
2:32 PM 35.6 °F 24.0 °F 32.0 °F 87% 30.00 in 3.0 mi East 23.0 mph 35.7 mph 0.02 in Snow Light Snow
2:52 PM 35.1 °F 23.3 °F 33.1 °F 92% 29.99 in 5.0 mi ENE 23.0 mph 40.3 mph 0.03 in Rain Light Rain
3:52 PM 35.1 °F 22.0 °F 32.0 °F 89% 29.89 in 2.5 mi ENE 28.8 mph 39.1 mph 0.04 in Snow Light Snow
4:15 PM 35.6 °F 24.0 °F 32.0 °F 87% 29.87 in 1.5 mi ENE 23.0 mph 40.3 mph 0.03 in Snow Light Snow
4:52 PM 34.0 °F 19.7 °F 32.0 °F 92% 29.82 in 1.5 mi ENE 33.4 mph 42.6 mph 0.09 in Snow Light Snow
5:20 PM 33.8 °F 20.5 °F 33.8 °F 100% 29.79 in 1.2 mi ENE 27.6 mph 40.3 mph 0.04 in Snow Light Snow
5:52 PM 33.1 °F 18.7 °F 33.1 °F 100% 29.76 in 0.8 mi ENE 32.2 mph 42.6 mph 0.09 in Snow Light Snow
6:21 PM 33.8 °F 19.4 °F 33.8 °F 100% 29.70 in 1.0 mi NE 33.4 mph 44.9 mph 0.04 in Snow Light Snow
6:52 PM 33.1 °F 18.4 °F 33.1 °F 100% 29.65 in 1.0 mi NE 33.4 mph 47.2 mph 0.10 in Snow Light Snow
7:03 PM 33.8 °F 19.9 °F 30.2 °F 87% 29.63 in 1.2 mi NE 31.1 mph 54.1 mph 0.02 in   Mist
7:33 PM 33.8 °F 20.1 °F 33.8 °F 100% 29.58 in 1.2 mi NE 29.9 mph 47.2 mph 0.07 in Snow Light Snow
7:40 PM 33.8 °F 19.6 °F 33.8 °F 100% 29.57 in 1.2 mi NE 32.2 mph 54.1 mph 0.08 in Snow Light Snow
7:52 PM 34.0 °F 20.3 °F 33.1 °F 96% 29.56 in 1.8 mi NE 29.9 mph 48.3 mph 0.09 in Snow Light Snow
8:35 PM 33.8 °F 19.6 °F - N/A% 29.51 in 2.0 mi NE 32.2 mph 50.6 mph 0.08 in Snow Light Snow
8:41 PM 33.8 °F 19.9 °F - N/A% 29.51 in 1.8 mi NE 31.1 mph 55.2 mph 0.09 in Snow Light Snow
8:52 PM 33.1 °F 18.4 °F - N/A% 29.49 in 2.0 mi NE 33.4 mph 63.3 mph 0.10 in Rain Light Rain
8:57 PM 33.8 °F 19.4 °F - N/A% 29.48 in 1.8 mi NE 33.4 mph 50.6 mph 0.00 in Snow Light Snow
9:05 PM 33.8 °F 18.8 °F - N/A% 29.47 in 1.2 mi NE 36.8 mph 56.4 mph 0.02 in Snow Light Snow
9:17 PM 33.8 °F 18.8 °F - N/A% 29.45 in 1.5 mi NE 36.8 mph 59.8 mph 0.04 in Snow Light Snow
9:52 PM 33.1 °F 17.6 °F - N/A% 29.42 in 1.2 mi NE 38.0 mph 61.0 mph 0.11 in Snow Light Snow
10:46 PM 33.8 °F 19.4 °F - N/A% 29.33 in - NE 33.4 mph 51.8 mph 0.08 in Rain Rain
10:52 PM 33.1 °F 18.9 °F - N/A% 29.33 in - NE 31.1 mph 51.8 mph 0.10 in Rain Heavy Rain
11:01 PM 33.8 °F 19.9 °F - N/A% 29.31 in 1.2 mi NE 31.1 mph 59.8 mph 0.03 in Rain Heavy Rain
11:30 PM 32.0 °F 17.6 °F - N/A% 29.28 in 1.0 mi NE 29.9 mph 66.7 mph 0.08 in   Mist
11:52 PM 33.1 °F 18.7 °F - N/A% 29.30 in 1.2 mi NE 32.2 mph 55.2 mph 0.13 in Rain Rain